| time (UTC) | temp F | wind direction | speed MPH | gust MPH | rain 1hr in | rain 24hr in | rain mn in | humidity % | barometer mb |
| 20260503211522 | 69 | 236 | 2.0 | 7.0 | 0.00 | 0.02 | 0.02 | 45 | 1017.0 |
| 20260503210026 | 69 | 202 | 0.0 | 4.0 | 0.00 | 0.02 | 0.02 | 45 | 1017.1 |
| 20260503204508 | 69 | 206 | 1.0 | 6.0 | 0.00 | 0.02 | 0.02 | 44 | 1017.2 |
| 20260503203020 | 69 | 214 | 1.0 | 5.0 | 0.00 | 0.02 | 0.02 | 46 | 1017.4 |
| 20260503201523 | 69 | 193 | 4.0 | 9.0 | 0.00 | 0.02 | 0.02 | 45 | 1017.4 |
| 20260503200021 | 70 | 345 | 2.0 | 6.0 | 0.00 | 0.02 | 0.02 | 48 | 1017.6 |
| 20260503194528 | 69 | 80 | 0.0 | 7.0 | 0.00 | 0.02 | 0.02 | 45 | 1017.7 |
| 20260503193009 | 68 | 191 | 1.0 | 6.0 | 0.00 | 0.02 | 0.02 | 48 | 1018.2 |
| 20260503191514 | 70 | 15 | 2.0 | 6.0 | 0.00 | 0.03 | 0.02 | 46 | 1018.6 |
| 20260503190019 | 69 | 221 | 1.0 | 6.0 | 0.00 | 0.04 | 0.02 | 45 | 1018.8 |
| 20260503184530 | 69 | 173 | 1.0 | 7.0 | 0.00 | 0.04 | 0.02 | 46 | 1018.9 |
| 20260503183031 | 67 | 165 | 4.0 | 9.0 | 0.00 | 0.04 | 0.02 | 48 | 1019.2 |
| 20260503181512 | 68 | 235 | 1.0 | 5.0 | 0.00 | 0.04 | 0.02 | 47 | 1019.4 |
| 20260503180025 | 66 | 167 | 5.0 | 7.0 | 0.00 | 0.06 | 0.02 | 47 | 1019.5 |
| 20260503174524 | 67 | 238 | 2.0 | 9.0 | 0.00 | 0.06 | 0.02 | 48 | 1019.7 |
| 20260503173022 | 66 | 321 | 1.0 | 3.0 | 0.00 | 0.06 | 0.02 | 47 | 1019.7 |
| 20260503171529 | 65 | 327 | 1.0 | 6.0 | 0.00 | 0.06 | 0.02 | 49 | 1019.8 |
| 20260503081539 | 46 | 311 | 0.0 | 0.0 | 0.00 | 0.77 | 0.01 | 95 | 1017.1 |
| 20260503071543 | 47 | 311 | 0.0 | 1.0 | 0.00 | 0.85 | 0.01 | 95 | 1016.5 |
| 20260503054520 | 50 | 311 | 0.0 | 2.0 | 0.00 | 0.93 | 0.00 | 94 | 1016.5 |
| 20260503053003 | 50 | 311 | 0.0 | 2.0 | 0.00 | 0.93 | 0.00 | 94 | 1016.5 |
| 20260503051503 | 51 | 321 | 1.0 | 3.0 | 0.00 | 0.93 | 0.00 | 94 | 1016.5 |
| 20260503050006 | 51 | 319 | 0.0 | 2.0 | 0.00 | 0.93 | 0.00 | 94 | 1016.5 |
| 20260503044506 | 51 | 312 | 0.0 | 2.0 | 0.00 | 0.93 | 0.00 | 94 | 1016.2 |
| 20260503043016 | 52 | 352 | 0.0 | 2.0 | 0.00 | 0.93 | 0.00 | 94 | 1016.1 |
| 20260503041527 | 52 | 5 | 1.0 | 3.0 | 0.00 | 0.93 | 0.00 | 94 | 1015.7 |
| 20260503040005 | 52 | 261 | 1.0 | 4.0 | 0.00 | 0.93 | 0.00 | 94 | 1015.8 |
| 20260503034504 | 52 | 311 | 0.0 | 2.0 | 0.00 | 0.93 | 0.93 | 94 | 1015.7 |
| 20260503033008 | 52 | 288 | 1.0 | 3.0 | 0.00 | 0.93 | 0.93 | 94 | 1015.6 |
| 20260503031514 | 51 | 304 | 0.0 | 2.0 | 0.00 | 0.93 | 0.93 | 94 | 1015.4 |
| 20260503030021 | 51 | 284 | 0.0 | 2.0 | 0.00 | 0.93 | 0.93 | 94 | 1015.0 |
| 20260503024504 | 52 | 283 | 1.0 | 2.0 | 0.00 | 0.93 | 0.93 | 94 | 1014.7 |
| 20260503023010 | 52 | 292 | 0.0 | 2.0 | 0.00 | 0.93 | 0.93 | 94 | 1014.6 |
| 20260503021511 | 52 | 309 | 1.0 | 3.0 | 0.00 | 0.93 | 0.93 | 93 | 1014.3 |
| 20260503020021 | 52 | 309 | 0.0 | 2.0 | 0.00 | 0.93 | 0.93 | 93 | 1014.1 |
| 20260503014520 | 53 | 302 | 1.0 | 3.0 | 0.00 | 0.93 | 0.93 | 93 | 1014.1 |
| 20260503013010 | 53 | 298 | 1.0 | 4.0 | 0.00 | 0.94 | 0.93 | 92 | 1014.1 |
| 20260503011508 | 54 | 287 | 1.0 | 2.0 | 0.00 | 0.94 | 0.93 | 92 | 1014.0 |
| 20260503010014 | 54 | 329 | 0.0 | 2.0 | 0.00 | 0.94 | 0.93 | 91 | 1013.5 |
| 20260503004518 | 54 | 5 | 1.0 | 2.0 | 0.00 | 0.94 | 0.93 | 91 | 1013.3 |
| 20260503003034 | 54 | 360 | 2.0 | 4.0 | 0.00 | 0.94 | 0.93 | 90 | 1013.3 |
| 20260503001506 | 55 | 27 | 1.0 | 4.0 | 0.00 | 0.94 | 0.93 | 90 | 1013.2 |
| 20260503000012 | 55 | 350 | 3.0 | 4.0 | 0.00 | 0.94 | 0.93 | 90 | 1013.2 |
| 20260502234519 | 55 | 347 | 3.0 | 5.0 | 0.00 | 0.94 | 0.93 | 90 | 1012.7 |
| 20260502233019 | 55 | 350 | 3.0 | 8.0 | 0.00 | 0.94 | 0.93 | 90 | 1012.4 |
| 20260502231532 | 55 | 350 | 3.0 | 10.0 | 0.00 | 0.94 | 0.93 | 90 | 1012.5 |
| 20260502230009 | 55 | 360 | 3.0 | 8.0 | 0.00 | 0.94 | 0.93 | 90 | 1012.3 |
| 20260502224527 | 55 | 32 | 3.0 | 8.0 | 0.00 | 0.95 | 0.93 | 90 | 1012.2 |
| 20260502223018 | 55 | 349 | 3.0 | 10.0 | 0.00 | 0.95 | 0.93 | 90 | 1012.2 |
| 20260502221525 | 55 | 352 | 6.0 | 11.0 | 0.00 | 0.95 | 0.93 | 90 | 1012.0 |
| 20260502220026 | 56 | 37 | 3.0 | 9.0 | 0.00 | 0.95 | 0.93 | 89 | 1012.0 |
| 20260502214510 | 56 | 360 | 5.0 | 10.0 | 0.00 | 0.95 | 0.93 | 89 | 1011.7 |
| 20260502213032 | 56 | 337 | 6.0 | 11.0 | 0.00 | 0.95 | 0.93 | 89 | 1011.5 |